Погода в Новопетровке

Россия / Белгородская область     50°07′41″N   37°45′01″E
темп.,
°C
ветер,
м/с
пор.,
м/с
влажн.,
%
обл.,
%
осадки,
мм/ч
давл.,
гПа
погр.,
м
2 июля, сб
сб200:00+11ссв411730 0.0 1018281
03:00+10ссв511710 0.0 1019379
06:00+9с410790 0.0 1020384
09:00+15с68610 0.0 1020726
12:00+19с79535 0.0 10201359
15:00+21ссв71054100 0.0 10191999
18:00+20с610590 0.0 10181227
21:00+15ссз48770 0.0 1019136
3 июля, вс
вс300:00+13ссз49830 0.0 1019158
03:00+12сз49853 0.0 1018142
06:00+14сз511815 0.0 1018245
09:00+20ссз69605 0.0 1018522
12:00+24с68492 0.0 10171504
15:00+25ссз57484 0.0 10171737
18:00+22ссз356534 0.0 101679
21:00+18сз48800 0.2 1017140
4 июля, пн
пн400:00+17сз48900 0.0 1016127
03:00+16ссз47930 0.0 1017116
06:00+17с35875 0.0 1017116
09:00+23с23595 0.0 1017505
12:00+27с35474 0.0 10172010
15:00+28с344271 0.0 10162599
18:00+25ссв126197 0.0 1016179
21:00+21всв1270100 0.0 101711
5 июля, вт
вт500:00+18в22844 0.3 101817
03:00+16ююв338279 0.3 101947
06:00+18ююв227663 0.0 101949
09:00+21ююв236683 0.0 1020252
12:00+25ю23472 0.0 1020914
15:00+27в12405 0.0 10192158
18:00+27всв224813 0.0 10192090
21:00+21в22630 0.0 101911
6 июля, ср
ср600:00+19вюв22683 0.0 101911
03:00+17юв22710 0.0 101911
06:00+18юв22730 0.0 102036
09:00+24ююв33560 0.0 1019424
12:00+28ююв34420 0.0 10191825
15:00+29ююв34390 0.0 10182159
18:00+28юв23480 0.0 1017950
21:00+22вюв22520 0.0 101711